Weather History for Pilot Point AP, Pilot Point,, AK

Change the Weather History Date:

Sunday, January 5, 2014

  Actual Average (PAKN) Record (PAKN)
Temperature  
Mean Temperature 38 °F 17 °F  
Max Temperature 41 °F 24 °F 45 °F (1979)
Min Temperature 34 °F - -41 °F (1975)
Degree Days  
Heating Degree Days 28 49  
Month to date heating degree days 241  
Since 1 July heating degree days 5054  
Cooling Degree Days 0    
Month to date cooling degree days  
Year to date cooling degree days  
Moisture  
Dew Point 33 °F    
Average Humidity 83    
Maximum Humidity 92    
Minimum Humidity 70    
Precipitation  
Precipitation 0.00 in 0.03 in 0.39 in (1984)
Month to date precipitation 0.16  
Year to date precipitation 0.16  
Snow  
Snow 0.00 in 0.30 in 6.00 in (1984)
Month to date snowfall 1.4  
Since 1 July snowfall 20.7  
Snow Depth -    
Sea Level Pressure  
Sea Level Pressure 29.23 in    
Wind  
Wind Speed 16 mph (SE)    
Max Wind Speed 28 mph    
Max Gust Speed 32 mph    
T = Trace of Precipitation, MM = Missing Value Source: NWS Daily Summary

Daily Weather History Graph

Daily Weather History Graph

Search for Another Location

Airport:

Trip Planner

Search our weather history database for the weather conditions in past years. The results will help you decide how hot, cold, wet, or windy it might be!

Date:

Astronomy

Jan. 05, 2014 Rise Set
Actual Time 10:10 AM AKST 5:01 PM AKST
Civil Twilight 9:20 AM AKST 5:51 PM AKST
Nautical Twilight 8:29 AM AKST 6:42 PM AKST
Astronomical Twilight 7:42 AM AKST 7:29 PM AKST
Moon 11:46 AM AKST (1/5) No Moon Set
Length of Visible Light 8h 30m
Length of Day
6h 51m
Waxing Crescent, 26% of the Moon is Illuminated
Jan 5
Waxing Crescent
Jan 7
First Quarter
Jan 15
Full
Jan 23
Last Quarter
Jan 30
New

Hourly Weather History & Observations

Time (AKST) Temp. Windchill Dew Point Humidity Pressure Visibility Wind Dir Wind Speed Gust Speed Precip Events Conditions
12:56 AM 39.9 °F 30.2 °F 36.0 °F 86% 29.06 in - ESE 20.7 mph - N/A   Unknown
1:56 AM 38.8 °F 29.4 °F 36.0 °F 89% 29.06 in - ESE 18.4 mph - N/A   Unknown
3:56 AM 38.8 °F 29.7 °F 36.0 °F 89% 29.05 in - East 17.3 mph 24.2 mph N/A   Unknown
4:56 AM 37.9 °F 30.5 °F 34.9 °F 89% 29.05 in - East 11.5 mph - N/A   Unknown
5:56 AM 39.9 °F 31.1 °F 36.0 °F 86% 29.07 in - ESE 17.3 mph 23.0 mph N/A   Unknown
6:56 AM 39.9 °F 32.1 °F 34.9 °F 82% 29.10 in - SE 13.8 mph - N/A   Unknown
7:56 AM 38.8 °F 31.2 °F 34.9 °F 86% 29.13 in - SSE 12.7 mph - N/A   Unknown
8:56 AM 39.2 °F 29.3 °F 33.8 °F 81% 29.17 in - SSE 20.7 mph - N/A   Unknown
9:56 AM 37.9 °F 32.7 °F 32.9 °F 82% 29.22 in - ESE 6.9 mph - N/A   Unknown
10:56 AM 39.9 °F 31.1 °F 34.0 °F 79% 29.26 in - SSE 17.3 mph - N/A   Unknown
11:56 AM 41.0 °F 31.4 °F 34.0 °F 76% 29.28 in - South 21.9 mph 32.2 mph N/A   Unknown
12:56 PM 39.9 °F 28.8 °F 32.9 °F 76% 29.29 in - SSE 27.6 mph 31.1 mph N/A   Unknown
1:56 PM 39.9 °F 32.1 °F 32.9 °F 76% 29.32 in - SE 13.8 mph 19.6 mph N/A   Unknown
2:56 PM 41.0 °F 32.2 °F 32.0 °F 70% 29.34 in - SSE 18.4 mph 26.5 mph N/A   Unknown
3:56 PM 39.9 °F 32.9 °F 32.9 °F 76% 29.35 in - SE 11.5 mph - N/A   Unknown
4:56 PM 39.9 °F 33.9 °F 32.0 °F 73% 29.35 in - SE 9.2 mph - N/A   Unknown
5:56 PM 39.2 °F 32.5 °F 32.0 °F 75% 29.33 in - South 10.4 mph - N/A   Unknown
6:56 PM 36.0 °F 28.5 °F 31.1 °F 82% 29.33 in - ESE 10.4 mph - N/A   Unknown
7:56 PM 34.0 °F 26.0 °F 32.0 °F 92% 29.33 in - East 10.4 mph - N/A   Unknown
8:56 PM 35.6 °F 28.0 °F 32.0 °F 87% 29.33 in - East 10.4 mph - N/A   Unknown
9:56 PM 34.9 °F 27.1 °F 32.0 °F 89% 29.33 in - East 10.4 mph - N/A   Unknown
10:56 PM 34.9 °F 29.9 °F 32.0 °F 89% 29.33 in - East 5.8 mph - N/A   Unknown
11:56 PM 34.0 °F 26.0 °F 31.1 °F 89% 29.32 in - SE 10.4 mph - N/A   Unknown